Location: Wheeling
(40.0640°N, 80.7210°W)
Time: 20:03:11
(UTC-05:00)

ITAMSAT 1 - Pass Details

Date: 29 October 2021
Orbit: 784 x 796 km, 98.9° (Epoch: 01 December)

Event Time Altitude Azimuth Distance (km) Brightness Sun altitude
Rises 19:59:13 0° 171° (S) 3,259 10.8 -18.8°
Reaches altitude 10° 20:01:32 10° 174° (S) 2,335 10.1 -19.3°
Maximum altitude 20:06:40 69° 257° (WSW) 842 7.9 -20.2°
Drops below altitude 10° 20:11:51 10° 341° (NNW) 2,357 10.3 -21.2°
Sets 20:14:12 0° 344° (NNW) 3,292 11.1 -21.7°
